Time,TemperatureF,DewpointF,PressureIn,WindDirection,WindDirectionDegrees,WindSpeedMPH,WindSpeedGustMPH,Humidity,HourlyPrecipIn,Conditions,Clouds,dailyrainin,SoftwareType,DateUTC
2013-04-30 00:00:00,72.3,60.7,29.46,SSW,199,1.0,1.0,67,0.00,,,0.00,Wunderground v.1.15,2013-04-30 05:00:00,
2013-04-30 00:10:00,72.7,61.1,29.46,SSW,202,1.0,1.0,67,0.00,,,0.00,Wunderground v.1.15,2013-04-30 05:10:00,
2013-04-30 00:20:00,72.8,60.8,29.47,SSW,198,2.0,2.0,66,0.00,,,0.00,Wunderground v.1.15,2013-04-30 05:20:00,
2013-04-30 00:30:00,73.0,60.5,29.47,SSW,202,1.0,1.0,65,0.00,,,0.00,Wunderground v.1.15,2013-04-30 05:30:00,
2013-04-30 00:40:00,73.0,60.5,29.47,WSW,242,1.0,6.0,65,0.00,,,0.00,Wunderground v.1.15,2013-04-30 05:40:00,
2013-04-30 00:50:00,73.0,60.1,29.46,SSW,211,1.0,1.0,64,0.00,,,0.00,Wunderground v.1.15,2013-04-30 05:50:00,
2013-04-30 01:00:00,72.8,59.9,29.47,SSW,208,2.0,2.0,64,0.00,,,0.00,Wunderground v.1.15,2013-04-30 06:00:00,
2013-04-30 01:10:00,72.7,59.8,29.47,SSE,155,1.0,1.0,64,0.00,,,0.00,Wunderground v.1.15,2013-04-30 06:10:00,
2013-04-30 01:20:00,72.5,59.6,29.47,South,187,1.0,1.0,64,0.00,,,0.00,Wunderground v.1.15,2013-04-30 06:20:00,
2013-04-30 01:30:00,72.3,59.4,29.47,ESE,117,1.0,1.0,64,0.00,,,0.00,Wunderground v.1.15,2013-04-30 06:30:00,
2013-04-30 01:40:00,72.1,58.8,29.47,ESE,117,1.0,1.0,63,0.00,,,0.00,Wunderground v.1.15,2013-04-30 06:40:00,
2013-04-30 01:50:00,72.0,58.7,29.47,SSE,155,1.0,9.0,63,0.00,,,0.00,Wunderground v.1.15,2013-04-30 06:50:00,
2013-04-30 02:00:00,71.8,58.5,29.46,SW,219,2.0,9.0,63,0.00,,,0.00,Wunderground v.1.15,2013-04-30 07:00:00,
2013-04-30 02:10:00,71.6,58.3,29.46,SSW,209,2.0,9.0,63,0.00,,,0.00,Wunderground v.1.15,2013-04-30 07:10:00,
2013-04-30 02:20:00,71.5,58.2,29.46,South,182,1.0,9.0,63,0.00,,,0.00,Wunderground v.1.15,2013-04-30 07:20:00,
2013-04-30 02:30:00,71.5,57.8,29.47,South,190,1.0,1.0,62,0.00,,,0.00,Wunderground v.1.15,2013-04-30 07:30:00,
2013-04-30 02:40:00,71.3,57.6,29.47,SW,228,2.0,2.0,62,0.00,,,0.00,Wunderground v.1.15,2013-04-30 07:40:00,
2013-04-30 02:50:00,71.3,57.2,29.46,SSE,158,2.0,2.0,61,0.00,,,0.00,Wunderground v.1.15,2013-04-30 07:50:00,
2013-04-30 03:00:00,71.3,57.2,29.47,SW,215,2.0,9.0,61,0.00,,,0.00,Wunderground v.1.15,2013-04-30 08:00:00,
2013-04-30 03:10:00,71.3,57.2,29.47,SSW,204,2.0,2.0,61,0.00,,,0.00,Wunderground v.1.15,2013-04-30 08:10:00,
2013-04-30 03:20:00,70.9,56.3,29.47,SW,223,2.0,2.0,60,0.00,,,0.00,Wunderground v.1.15,2013-04-30 08:20:00,
2013-04-30 03:30:00,70.8,56.2,29.48,SE,140,1.0,1.0,60,0.00,,,0.00,Wunderground v.1.15,2013-04-30 08:30:00,
2013-04-30 03:40:00,70.9,55.9,29.48,South,184,2.0,9.0,59,0.00,,,0.00,Wunderground v.1.15,2013-04-30 08:40:00,
2013-04-30 03:50:00,70.8,55.3,29.48,South,172,1.0,9.0,58,0.00,,,0.00,Wunderground v.1.15,2013-04-30 08:50:00,
2013-04-30 04:00:00,70.9,54.9,29.47,South,182,2.0,2.0,57,0.00,,,0.00,Wunderground v.1.15,2013-04-30 09:00:00,
2013-04-30 04:10:00,71.1,54.6,29.47,SE,140,3.0,3.0,56,0.00,,,0.00,Wunderground v.1.15,2013-04-30 09:10:00,
2013-04-30 04:20:00,71.1,54.1,29.47,South,184,3.0,9.0,55,0.00,,,0.00,Wunderground v.1.15,2013-04-30 09:20:00,
2013-04-30 04:30:00,70.9,53.9,29.47,South,182,2.0,2.0,55,0.00,,,0.00,Wunderground v.1.15,2013-04-30 09:30:00,
2013-04-30 04:40:00,70.9,53.9,29.47,SSE,160,2.0,2.0,55,0.00,,,0.00,Wunderground v.1.15,2013-04-30 09:40:00,
2013-04-30 04:50:00,70.6,54.1,29.47,SSW,194,2.0,2.0,56,0.00,,,0.00,Wunderground v.1.15,2013-04-30 09:50:00,
2013-04-30 05:00:00,70.3,53.9,29.48,WSW,248,1.0,1.0,56,0.00,,,0.00,Wunderground v.1.15,2013-04-30 10:00:00,
2013-04-30 05:10:00,70.1,53.7,29.48,SSW,194,2.0,2.0,56,0.00,,,0.00,Wunderground v.1.15,2013-04-30 10:10:00,
2013-04-30 05:20:00,69.9,54.0,29.48,SW,227,2.0,2.0,57,0.00,,,0.00,Wunderground v.1.15,2013-04-30 10:20:00,
2013-04-30 05:30:00,69.8,53.9,29.48,SSW,202,1.0,1.0,57,0.00,,,0.00,Wunderground v.1.15,2013-04-30 10:30:00,
2013-04-30 05:40:00,69.6,53.7,29.48,SSW,210,2.0,2.0,57,0.00,,,0.00,Wunderground v.1.15,2013-04-30 10:40:00,
2013-04-30 05:50:00,69.3,53.4,29.48,ESE,121,1.0,1.0,57,0.00,,,0.00,Wunderground v.1.15,2013-04-30 10:50:00,
2013-04-30 06:00:00,69.1,53.2,29.49,SW,215,1.0,9.0,57,0.00,,,0.00,Wunderground v.1.15,2013-04-30 11:00:00,
2013-04-30 06:10:00,68.9,53.0,29.49,SW,219,1.0,1.0,57,0.00,,,0.00,Wunderground v.1.15,2013-04-30 11:10:00,
2013-04-30 06:20:00,68.8,52.5,29.50,SSE,165,1.0,1.0,56,0.00,,,0.00,Wunderground v.1.15,2013-04-30 11:20:00,
2013-04-30 06:30:00,68.6,52.3,29.50,SSW,192,1.0,1.0,56,0.00,,,0.00,Wunderground v.1.15,2013-04-30 11:30:00,
2013-04-30 06:40:00,68.4,51.6,29.50,SSW,196,2.0,2.0,55,0.00,,,0.00,Wunderground v.1.15,2013-04-30 11:40:00,
2013-04-30 06:50:00,68.4,51.6,29.51,SW,233,1.0,9.0,55,0.00,,,0.00,Wunderground v.1.15,2013-04-30 11:50:00,
2013-04-30 07:00:00,68.4,51.1,29.51,South,175,1.0,1.0,54,0.00,,,0.00,Wunderground v.1.15,2013-04-30 12:00:00,
2013-04-30 07:10:00,68.6,51.3,29.51,SW,218,1.0,9.0,54,0.00,,,0.00,Wunderground v.1.15,2013-04-30 12:10:00,
2013-04-30 07:20:00,69.1,50.7,29.52,South,186,2.0,2.0,52,0.00,,,0.00,Wunderground v.1.15,2013-04-30 12:20:00,
2013-04-30 07:30:00,69.4,51.0,29.53,South,187,2.0,2.0,52,0.00,,,0.00,Wunderground v.1.15,2013-04-30 12:30:00,
2013-04-30 07:40:00,69.6,50.7,29.53,SSW,202,2.0,9.0,51,0.00,,,0.00,Wunderground v.1.15,2013-04-30 12:40:00,
2013-04-30 07:50:00,69.9,50.9,29.53,WSW,240,2.0,2.0,51,0.00,,,0.00,Wunderground v.1.15,2013-04-30 12:50:00,
2013-04-30 08:00:00,70.3,50.8,29.54,SSW,207,2.0,9.0,50,0.00,,,0.00,Wunderground v.1.15,2013-04-30 13:00:00,
2013-04-30 08:10:00,70.8,50.1,29.54,SW,219,2.0,2.0,48,0.00,,,0.00,Wunderground v.1.15,2013-04-30 13:10:00,
2013-04-30 08:20:00,71.3,50.0,29.54,SSW,202,2.0,9.0,47,0.00,,,0.00,Wunderground v.1.15,2013-04-30 13:20:00,
2013-04-30 08:30:00,71.8,49.9,29.56,WSW,257,3.0,9.0,46,0.00,,,0.00,Wunderground v.1.15,2013-04-30 13:30:00,
2013-04-30 08:40:00,72.3,50.4,29.56,SSE,165,2.0,9.0,46,0.00,,,0.00,Wunderground v.1.15,2013-04-30 13:40:00,
2013-04-30 08:50:00,72.7,50.1,29.56,SW,217,3.0,10.0,45,0.00,,,0.00,Wunderground v.1.15,2013-04-30 13:50:00,
2013-04-30 09:00:00,73.7,49.8,29.56,South,180,3.0,3.0,43,0.00,,,0.00,Wunderground v.1.15,2013-04-30 14:00:00,
2013-04-30 09:10:00,74.6,48.7,29.56,WSW,240,4.0,11.0,40,0.00,,,0.00,Wunderground v.1.15,2013-04-30 14:10:00,
2013-04-30 09:20:00,74.6,47.3,29.56,SW,234,4.0,4.0,38,0.00,,,0.00,Wunderground v.1.15,2013-04-30 14:20:00,
2013-04-30 09:30:00,75.1,47.0,29.56,SW,217,4.0,9.0,37,0.00,,,0.00,Wunderground v.1.15,2013-04-30 14:30:00,
2013-04-30 09:40:00,76.3,48.1,29.56,WSW,239,4.0,4.0,37,0.00,,,0.00,Wunderground v.1.15,2013-04-30 14:40:00,
2013-04-30 09:50:00,75.8,47.7,29.57,South,188,4.0,4.0,37,0.00,,,0.00,Wunderground v.1.15,2013-04-30 14:50:00,
2013-04-30 10:00:00,76.8,48.6,29.57,SW,231,4.0,4.0,37,0.00,,,0.00,Wunderground v.1.15,2013-04-30 15:00:00,
2013-04-30 10:10:00,77.2,48.2,29.57,West,272,5.0,5.0,36,0.00,,,0.00,Wunderground v.1.15,2013-04-30 15:10:00,
2013-04-30 10:20:00,77.7,49.3,29.56,SSE,165,5.0,5.0,37,0.00,,,0.00,Wunderground v.1.15,2013-04-30 15:20:00,
2013-04-30 10:30:00,78.3,48.4,29.56,WSW,254,4.0,9.0,35,0.00,,,0.00,Wunderground v.1.15,2013-04-30 15:30:00,
2013-04-30 10:40:00,78.6,49.4,29.56,SW,218,4.0,4.0,36,0.00,,,0.00,Wunderground v.1.15,2013-04-30 15:40:00,
2013-04-30 10:50:00,79.2,50.7,29.56,West,262,3.0,3.0,37,0.00,,,0.00,Wunderground v.1.15,2013-04-30 15:50:00,
2013-04-30 11:00:00,79.4,51.6,29.56,WSW,251,5.0,5.0,38,0.00,,,0.00,Wunderground v.1.15,2013-04-30 16:00:00,
2013-04-30 11:10:00,79.6,51.8,29.56,SW,222,5.0,5.0,38,0.00,,,0.00,Wunderground v.1.15,2013-04-30 16:10:00,
2013-04-30 11:20:00,79.8,52.6,29.57,SSW,213,6.0,6.0,39,0.00,,,0.00,Wunderground v.1.15,2013-04-30 16:20:00,
2013-04-30 11:30:00,80.3,53.8,29.57,West,271,4.0,4.0,40,0.00,,,0.00,Wunderground v.1.15,2013-04-30 16:30:00,
2013-04-30 11:40:00,81.2,53.9,29.57,WSW,250,3.0,9.0,39,0.00,,,0.00,Wunderground v.1.15,2013-04-30 16:40:00,
2013-04-30 11:50:00,81.6,53.5,29.57,SW,215,3.0,3.0,38,0.00,,,0.00,Wunderground v.1.15,2013-04-30 16:50:00,
2013-04-30 12:00:00,81.8,53.7,29.57,South,182,3.0,3.0,38,0.00,,,0.00,Wunderground v.1.15,2013-04-30 17:00:00,
2013-04-30 12:10:00,82.0,52.4,29.57,WNW,291,2.0,2.0,36,0.00,,,0.00,Wunderground v.1.15,2013-04-30 17:10:00,
2013-04-30 12:20:00,82.4,52.8,29.56,SW,215,3.0,9.0,36,0.00,,,0.00,Wunderground v.1.15,2013-04-30 17:20:00,
2013-04-30 12:30:00,83.0,53.3,29.56,WSW,247,2.0,10.0,36,0.00,,,0.00,Wunderground v.1.15,2013-04-30 17:30:00,
2013-04-30 12:40:00,82.8,52.3,29.56,WSW,240,3.0,9.0,35,0.00,,,0.00,Wunderground v.1.15,2013-04-30 17:40:00,
2013-04-30 12:50:00,82.8,52.3,29.56,SSW,198,5.0,9.0,35,0.00,,,0.00,Wunderground v.1.15,2013-04-30 17:50:00,
2013-04-30 13:00:00,83.0,52.5,29.56,West,273,4.0,9.0,35,0.00,,,0.00,Wunderground v.1.15,2013-04-30 18:00:00,
2013-04-30 13:10:00,83.8,53.2,29.56,West,266,4.0,4.0,35,0.00,,,0.00,Wunderground v.1.15,2013-04-30 18:10:00,
2013-04-30 13:20:00,84.3,54.4,29.55,West,266,2.0,2.0,36,0.00,,,0.00,Wunderground v.1.15,2013-04-30 18:20:00,
2013-04-30 13:30:00,85.1,54.4,29.55,West,265,3.0,9.0,35,0.00,,,0.00,Wunderground v.1.15,2013-04-30 18:30:00,
2013-04-30 13:40:00,84.7,54.8,29.55,NNW,334,3.0,3.0,36,0.00,,,0.00,Wunderground v.1.15,2013-04-30 18:40:00,
2013-04-30 13:50:00,85.1,54.4,29.55,SW,236,2.0,2.0,35,0.00,,,0.00,Wunderground v.1.15,2013-04-30 18:50:00,
2013-04-30 14:00:00,84.5,53.8,29.55,SSW,200,3.0,3.0,35,0.00,,,0.00,Wunderground v.1.15,2013-04-30 19:00:00,
2013-04-30 14:10:00,85.1,54.4,29.55,South,170,3.0,3.0,35,0.00,,,0.00,Wunderground v.1.15,2013-04-30 19:10:00,
2013-04-30 14:20:00,85.3,53.8,29.55,WNW,285,4.0,9.0,34,0.00,,,0.00,Wunderground v.1.15,2013-04-30 19:20:00,
2013-04-30 14:30:00,85.7,53.3,29.55,SW,236,3.0,9.0,33,0.00,,,0.00,Wunderground v.1.15,2013-04-30 19:30:00,
2013-04-30 14:40:00,85.1,54.4,29.55,SW,217,2.0,9.0,35,0.00,,,0.00,Wunderground v.1.15,2013-04-30 19:40:00,
2013-04-30 14:50:00,86.1,53.6,29.55,SSW,206,2.0,2.0,33,0.00,,,0.00,Wunderground v.1.15,2013-04-30 19:50:00,
2013-04-30 15:00:00,85.5,53.1,29.56,West,260,2.0,2.0,33,0.00,,,0.00,Wunderground v.1.15,2013-04-30 20:00:00,
2013-04-30 15:10:00,85.5,53.1,29.56,West,269,2.0,2.0,33,0.00,,,0.00,Wunderground v.1.15,2013-04-30 20:10:00,
2013-04-30 15:20:00,85.5,51.4,29.56,SW,236,2.0,2.0,31,0.00,,,0.00,Wunderground v.1.15,2013-04-30 20:20:00,
2013-04-30 15:30:00,85.9,51.8,29.56,WSW,252,2.0,2.0,31,0.00,,,0.00,Wunderground v.1.15,2013-04-30 20:30:00,
2013-04-30 15:40:00,85.7,51.6,29.56,WSW,240,1.0,1.0,31,0.00,,,0.00,Wunderground v.1.15,2013-04-30 20:40:00,
2013-04-30 15:50:00,85.9,51.8,29.55,SSW,202,1.0,9.0,31,0.00,,,0.00,Wunderground v.1.15,2013-04-30 20:50:00,
2013-04-30 16:00:00,84.9,50.9,29.56,SSW,194,1.0,1.0,31,0.00,,,0.00,Wunderground v.1.15,2013-04-30 21:00:00,
2013-04-30 16:10:00,85.9,51.8,29.56,NNW,327,1.0,1.0,31,0.00,,,0.00,Wunderground v.1.15,2013-04-30 21:10:00,
2013-04-30 16:20:00,86.7,51.6,29.56,SSE,147,1.0,1.0,30,0.00,,,0.00,Wunderground v.1.15,2013-04-30 21:20:00,
2013-04-30 16:30:00,86.7,50.6,29.56,SSW,200,3.0,3.0,29,0.00,,,0.00,Wunderground v.1.15,2013-04-30 21:30:00,
2013-04-30 16:40:00,86.3,52.1,29.56,South,189,3.0,9.0,31,0.00,,,0.00,Wunderground v.1.15,2013-04-30 21:40:00,
2013-04-30 16:50:00,85.5,51.4,29.56,ESE,119,2.0,9.0,31,0.00,,,0.00,Wunderground v.1.15,2013-04-30 21:50:00,
2013-04-30 17:00:00,85.5,50.5,29.56,SSW,197,2.0,2.0,30,0.00,,,0.00,Wunderground v.1.15,2013-04-30 22:00:00,
2013-04-30 17:10:00,85.7,51.6,29.56,South,182,1.0,1.0,31,0.00,,,0.00,Wunderground v.1.15,2013-04-30 22:10:00,
2013-04-30 17:20:00,85.3,51.2,29.56,South,175,1.0,9.0,31,0.00,,,0.00,Wunderground v.1.15,2013-04-30 22:20:00,
2013-04-30 17:30:00,85.7,51.6,29.56,SSW,205,1.0,1.0,31,0.00,,,0.00,Wunderground v.1.15,2013-04-30 22:30:00,
2013-04-30 17:40:00,86.5,52.3,29.56,SW,219,0.0,9.0,31,0.00,,,0.00,Wunderground v.1.15,2013-04-30 22:40:00,
2013-04-30 17:50:00,86.1,50.1,29.57,SSE,161,1.0,1.0,29,0.00,,,0.00,Wunderground v.1.15,2013-04-30 22:50:00,
2013-04-30 18:00:00,85.3,50.4,29.58,WSW,252,1.0,9.0,30,0.00,,,0.00,Wunderground v.1.15,2013-04-30 23:00:00,
2013-04-30 18:10:00,85.1,49.3,29.58,SSE,156,1.0,9.0,29,0.00,,,0.00,Wunderground v.1.15,2013-04-30 23:10:00,
2013-04-30 18:20:00,84.7,49.8,29.58,South,188,1.0,1.0,30,0.00,,,0.00,Wunderground v.1.15,2013-04-30 23:20:00,
2013-04-30 18:30:00,84.3,49.5,29.59,WSW,240,1.0,1.0,30,0.00,,,0.00,Wunderground v.1.15,2013-04-30 23:30:00,
2013-04-30 18:40:00,84.0,50.1,29.59,WSW,240,2.0,2.0,31,0.00,,,0.00,Wunderground v.1.15,2013-04-30 23:40:00,
2013-04-30 18:50:00,83.6,50.6,29.59,SSW,198,1.0,1.0,32,0.00,,,0.00,Wunderground v.1.15,2013-04-30 23:50:00,
2013-04-30 19:00:00,83.2,50.3,29.59,SSW,192,1.0,1.0,32,0.00,,,0.00,Wunderground v.1.15,2013-05-01 00:00:00,
2013-04-30 19:10:00,82.6,50.6,29.59,SSW,193,1.0,1.0,33,0.00,,,0.00,Wunderground v.1.15,2013-05-01 00:10:00,
2013-04-30 19:20:00,82.0,50.1,29.60,South,190,0.0,9.0,33,0.00,,,0.00,Wunderground v.1.15,2013-05-01 00:20:00,
2013-04-30 19:30:00,81.2,50.2,29.61,South,183,0.0,9.0,34,0.00,,,0.00,Wunderground v.1.15,2013-05-01 00:30:00,
2013-04-30 19:40:00,80.3,50.1,29.61,SW,219,0.0,9.0,35,0.00,,,0.00,Wunderground v.1.15,2013-05-01 00:40:00,
2013-04-30 19:50:00,79.6,51.0,29.61,SSW,209,0.0,9.0,37,0.00,,,0.00,Wunderground v.1.15,2013-05-01 00:50:00,
2013-04-30 20:00:00,78.8,50.3,29.62,SSW,194,1.0,1.0,37,0.00,,,0.00,Wunderground v.1.15,2013-05-01 01:00:00,
2013-04-30 20:10:00,78.3,50.6,29.62,SSW,193,0.0,9.0,38,0.00,,,0.00,Wunderground v.1.15,2013-05-01 01:10:00,
2013-04-30 20:20:00,77.7,50.8,29.61,SSE,156,0.0,9.0,39,0.00,,,0.00,Wunderground v.1.15,2013-05-01 01:20:00,
2013-04-30 20:30:00,77.2,50.3,29.61,ESE,104,0.0,9.0,39,0.00,,,0.00,Wunderground v.1.15,2013-05-01 01:30:00,
2013-04-30 20:40:00,76.8,50.6,29.61,SSW,197,0.0,9.0,40,0.00,,,0.00,Wunderground v.1.15,2013-05-01 01:40:00,
2013-04-30 20:50:00,76.5,51.0,29.63,SSW,195,0.0,9.0,41,0.00,,,0.00,Wunderground v.1.15,2013-05-01 01:50:00,
2013-04-30 21:00:00,76.0,51.2,29.64,South,177,0.0,9.0,42,0.00,,,0.00,Wunderground v.1.15,2013-05-01 02:00:00,
2013-04-30 21:10:00,75.4,50.7,29.64,SSW,203,0.0,9.0,42,0.00,,,0.00,Wunderground v.1.15,2013-05-01 02:10:00,
2013-04-30 21:20:00,75.1,50.4,29.65,SSW,192,0.0,9.0,42,0.00,,,0.00,Wunderground v.1.15,2013-05-01 02:20:00,
2013-04-30 21:30:00,74.7,50.1,29.66,SSW,194,0.0,9.0,42,0.00,,,0.00,Wunderground v.1.15,2013-05-01 02:30:00,
2013-04-30 21:40:00,74.6,50.6,29.66,SSW,200,0.0,9.0,43,0.00,,,0.00,Wunderground v.1.15,2013-05-01 02:40:00,
2013-04-30 21:50:00,74.4,51.1,29.68,SSW,201,0.0,9.0,44,0.00,,,0.00,Wunderground v.1.15,2013-05-01 02:50:00,
2013-04-30 22:00:00,73.9,51.2,29.70,SSW,204,0.0,9.0,45,0.00,,,0.00,Wunderground v.1.15,2013-05-01 03:00:00,
2013-04-30 22:10:00,72.8,49.6,29.70,NW,321,1.0,1.0,44,0.00,,,0.00,Wunderground v.1.15,2013-05-01 03:10:00,
2013-04-30 22:20:00,72.0,49.5,29.70,NNE,30,0.0,9.0,45,0.00,,,0.00,Wunderground v.1.15,2013-05-01 03:20:00,
2013-04-30 22:30:00,70.9,49.1,29.71,NNE,30,0.0,9.0,46,0.00,,,0.00,Wunderground v.1.15,2013-05-01 03:30:00,
2013-04-30 22:40:00,70.3,49.1,29.71,NNE,23,0.0,9.0,47,0.00,,,0.00,Wunderground v.1.15,2013-05-01 03:40:00,
2013-04-30 22:50:00,69.4,48.9,29.72,North,355,0.0,9.0,48,0.00,,,0.00,Wunderground v.1.15,2013-05-01 03:50:00,
2013-04-30 23:00:00,68.8,48.3,29.72,North,355,0.0,9.0,48,0.00,,,0.00,Wunderground v.1.15,2013-05-01 04:00:00,
2013-04-30 23:10:00,68.3,48.4,29.72,North,360,0.0,9.0,49,0.00,,,0.00,Wunderground v.1.15,2013-05-01 04:10:00,
2013-04-30 23:20:00,67.8,47.9,29.72,North,350,0.0,9.0,49,0.00,,,0.00,Wunderground v.1.15,2013-05-01 04:20:00,
2013-04-30 23:30:00,66.9,48.2,29.72,NNE,25,1.0,1.0,51,0.00,,,0.00,Wunderground v.1.15,2013-05-01 04:30:00,
2013-04-30 23:40:00,66.0,47.3,29.72,NNE,25,1.0,1.0,51,0.00,,,0.00,Wunderground v.1.15,2013-05-01 04:40:00,
2013-04-30 23:50:00,65.0,46.4,29.72,NE,36,1.0,1.0,51,0.00,,,0.00,Wunderground v.1.15,2013-05-01 04:50:00,